Showing default

JILIN-01 GAOFEN 3D 27, 52444

Orbit data source: Space-Track

JILIN-01 GAOFEN 3D 27, 52444 is a payload satellite owned by Changguang WJ (CN) in SSO that was launched on Thu, 05 May 2022 UTC via a CHANG ZHENG 2D launch vehicle from the Taiyaun Space Center, China (TSC). Payload-class satellites include a variety of spacecraft equipped with specific instruments for various scientific and technological missions. These include communications satellites like Starlink; space stations such as the ISS; scientific satellites like the Hubble; Earth observation satellites from companies like Planet Labs, Umbra, and HawkEye 360; GPS; miniature CubeSats for education and research; and military/defense satellites.

Loading next visibility...
Identifier
52444, 2022-048B
Orbit
SSO
Last TLE update
5 hours ago
Origin
Manufacturer
Changguang WJ
Mission
Operational Commercial Imaging
Bus & Motor
JL-1, Unknown motor
Mass
42 kg wet, 42 kg dry
Launch date (UTC)
2022-05-05 (3 years ago)
Launch vehicle
CHANG ZHENG 2D
Launch site
Taiyaun Space Center, China (TSC)
Object type
Payload
Rocket body
Debris
Shape & HBR
Box + 2 Pan, 1.5 m
Radar Cross Section
2.000 m², Medium (>0.1 m² and < 1m²)

Expand to show TLE details & history

TLE from 5 hours ago
0 JILIN-01 GAOFEN 3D 27
1 52444U 22048B   25186.23199661  .00018675  00000-0  52001-3 0  9992
2 52444  97.5725 277.0280 0008308 213.9552 146.1161 15.36825329175689
Epoch: 2025-07-05T05:34Z
TLE epoch observation values (Epoch: 2025-07-05T05:34:04.507Z)
Latitude
0.00001°
Longitude
-89.96378°
Altitude
463.328 km
Speed
7.632 km/s
True Right ascension
18h 28m 06s
True Declination
0° 00' 00"
Sunlit
Object was in full shadow at epoch
Visualization orbit readout
Latitude
66.30097°
Longitude
107.78703°
Altitude
467.998 km
Speed
7.638 km/s
Apparent Right ascension
09h 35m 25s
Apparent Declination
16° 58' 55"
Sunlit
Object is in daylight
Visualization observer readout
Local Sidereal Time
22:38:57
Azimuth
17.821° NNE
Elevation
-31.206°
Doppler factor
1
Orbital elements
Apogee altitude
458.13 km
Perigee altitude
446.78 km
Semi-major axis
6,830.592 km
Eccentricity
0.00083
Inclination
97.5725°
RAAN
277.028°
Arg. of periapsis
213.9552°
True anomaly
Unknown
Mean anomaly
146.1161°
Eccentric anomaly
Unknown
Mean motion
3.84464 °/min
Orbital period
93.64 mins
BSTAR
0.00052001
Loading maneuver chart data...
Loading SW <> Apogee altitude chart data...
Loading historical data...
Loading historical data...
Loading historical data...
Loading historical data...
Loading historical data...
Loading historical data...
Loading historical data...

JILIN-01 GAOFEN 3D 27 Visibility forecast

Observer location: undefined°, undefined°

Span
Click to sort rows by Start time (UTC) header in descending order
Start Az.
Max El. time (UTC)
Max El. Az.
Max El.
End time (UTC)
End Az.
6 mins2025-07-05 18:37:41.492Z26.427° NE2025-07-05 18:40:41.492Z97.911° ESE35.193°2025-07-05 18:43:41.492Z172.38° S
4 mins2025-07-06 06:42:41.492Z217.603° SW2025-07-06 06:44:41.492Z272.216° WNW24.606°2025-07-06 06:46:41.492Z316.329° NNW
|